CPA163 ZJHK-VHHH

Flight info

Callsign CPA163
Flight time 0h 47m
Altitude 34000
Route K0863S0950 SAMAS9XD SAMAS A202 SIKOU/N0466F311 V571 CANTO CANTO3A
Aircraft B77W/H-SDE1E2E3FGHIJ2J3J4J5M1RWXY/LB1D1

Departure

Time 2026-05-04 13:15
Airport Haikou Meilan International Airport (ZJHK)

Arrival

Time 2026-05-04 14:02
Airport Hong Kong International Airport (VHHH)
Time Latitude Longitude Altitude Speed Heading
2026-05-04 12:27 19.94929 110.45976 77 ft 0 kts 173°
2026-05-04 13:03 19.94937 110.45976 77 ft 2 kts 173°
2026-05-04 13:03 19.94952 110.45973 77 ft 2 kts 173°
2026-05-04 13:04 19.94966 110.45972 77 ft 2 kts 175°
2026-05-04 13:04 19.94981 110.45972 77 ft 2 kts 187°
2026-05-04 13:04 19.94996 110.45974 77 ft 2 kts 197°
2026-05-04 13:04 19.95010 110.45980 77 ft 2 kts 205°
2026-05-04 13:05 19.95023 110.45988 77 ft 2 kts 215°
2026-05-04 13:05 19.95034 110.45998 77 ft 2 kts 224°
2026-05-04 13:05 19.95044 110.46009 76 ft 2 kts 233°
2026-05-04 13:05 19.95052 110.46022 75 ft 2 kts 243°
2026-05-04 13:06 19.95058 110.46036 75 ft 2 kts 252°
2026-05-04 13:06 19.95062 110.46053 74 ft 2 kts 262°
2026-05-04 13:06 19.95063 110.46066 74 ft 0 kts 270°
2026-05-04 13:06 19.95063 110.46069 74 ft 0 kts 271°
2026-05-04 13:09 19.95063 110.46049 74 ft 7 kts 269°
2026-05-04 13:09 19.95065 110.46003 76 ft 4 kts 288°
2026-05-04 13:10 19.95071 110.45993 76 ft 4 kts 305°
2026-05-04 13:10 19.95079 110.45982 76 ft 5 kts 319°
2026-05-04 13:10 19.95112 110.45940 76 ft 9 kts 288°
2026-05-04 13:11 19.95120 110.45853 77 ft 14 kts 270°
2026-05-04 13:11 19.95121 110.45723 75 ft 20 kts 269°
2026-05-04 13:11 19.95119 110.45556 73 ft 23 kts 268°
2026-05-04 13:11 19.95119 110.45385 70 ft 23 kts 269°
2026-05-04 13:12 19.95119 110.45209 66 ft 23 kts 269°
2026-05-04 13:12 19.95118 110.45114 66 ft 10 kts 270°
2026-05-04 13:12 19.95119 110.45036 65 ft 10 kts 270°
2026-05-04 13:12 19.95174 110.44988 65 ft 11 kts 352°
2026-05-04 13:13 19.95229 110.44985 65 ft 0 kts 359°
2026-05-04 13:13 19.95252 110.44984 65 ft 5 kts 359°
2026-05-04 13:13 19.95306 110.44984 65 ft 9 kts 360°
2026-05-04 13:14 19.95361 110.45009 64 ft 9 kts 61°
2026-05-04 13:14 19.95371 110.45077 64 ft 11 kts 89°
2026-05-04 13:14 19.95369 110.45320 67 ft 68 kts 84°
2026-05-04 13:14 19.95377 110.46098 70 ft 143 kts 90°
2026-05-04 13:15 19.95380 110.47320 448 ft 175 kts 88°
2026-05-04 13:15 19.95387 110.48570 1498 ft 172 kts 89°
2026-05-04 13:15 19.95531 110.49828 2267 ft 182 kts 69°
2026-05-04 13:15 19.96363 110.50897 2849 ft 205 kts 36°
2026-05-04 13:16 19.97636 110.51734 3525 ft 225 kts 34°
2026-05-04 13:16 19.99030 110.52619 4212 ft 245 kts 33°
2026-05-04 13:16 20.00560 110.53587 4947 ft 264 kts 32°
2026-05-04 13:16 20.02194 110.54619 5676 ft 284 kts 31°
2026-05-04 13:17 20.02263 110.54662 5705 ft 285 kts 31°
2026-05-04 13:17 20.03107 110.55196 6077 ft 294 kts 31°
2026-05-04 13:17 20.04319 110.55960 6609 ft 306 kts 31°
2026-05-04 13:17 20.04866 110.56305 6837 ft 311 kts 30°
2026-05-04 13:18 20.05706 110.56834 7233 ft 317 kts 30°
2026-05-04 13:19 20.06758 110.57497 7784 ft 322 kts 30°
2026-05-04 13:19 20.07382 110.57891 8116 ft 324 kts 30°
2026-05-04 13:20 20.09000 110.58819 8660 ft 328 kts 20°
2026-05-04 13:20 20.09451 110.58994 8746 ft 328 kts 16°
2026-05-04 13:21 20.10094 110.59175 8825 ft 328 kts 10°
2026-05-04 13:21 20.12359 110.59217 8895 ft 326 kts 349°
2026-05-04 13:21 20.14603 110.58682 8916 ft 325 kts 344°
2026-05-04 13:22 20.16788 110.58085 8918 ft 324 kts 344°
2026-05-04 13:22 20.19003 110.57497 8920 ft 328 kts 345°
2026-05-04 13:22 20.21292 110.56908 9616 ft 344 kts 345°
2026-05-04 13:22 20.23615 110.56317 10717 ft 348 kts 344°
2026-05-04 13:23 20.25978 110.55718 11686 ft 355 kts 344°
2026-05-04 13:23 20.28409 110.55102 12740 ft 359 kts 343°
2026-05-04 13:23 20.30823 110.54490 13749 ft 363 kts 343°
2026-05-04 13:23 20.33297 110.53863 14741 ft 368 kts 343°
2026-05-04 13:24 20.35778 110.53234 15766 ft 370 kts 342°
2026-05-04 13:24 20.38318 110.52612 16685 ft 377 kts 345°
2026-05-04 13:24 20.40953 110.52339 17590 ft 386 kts 355°
2026-05-04 13:25 20.46363 110.53302 19160 ft 410 kts 15°
2026-05-04 13:25 20.49008 110.54604 19848 ft 424 kts 27°
2026-05-04 13:25 20.51424 110.56421 20605 ft 434 kts 38°
2026-05-04 13:25 20.53558 110.58746 21349 ft 444 kts 49°
2026-05-04 13:26 20.55271 110.61498 22115 ft 451 kts 60°
2026-05-04 13:26 20.56496 110.64611 22818 ft 458 kts 71°
2026-05-04 13:26 20.57399 110.67894 23470 ft 465 kts 73°
2026-05-04 13:26 20.58319 110.71191 24173 ft 470 kts 72°
2026-05-04 13:27 20.59306 110.74538 24847 ft 477 kts 72°
2026-05-04 13:27 20.60346 110.77927 25549 ft 482 kts 71°
2026-05-04 13:27 20.61414 110.81318 26245 ft 487 kts 71°
2026-05-04 13:27 20.62503 110.84716 26934 ft 491 kts 70°
2026-05-04 13:28 20.63634 110.88200 27571 ft 497 kts 70°
2026-05-04 13:28 20.64772 110.91671 28190 ft 503 kts 70°
2026-05-04 13:28 20.65949 110.95213 28807 ft 509 kts 70°
2026-05-04 13:28 20.67146 110.98789 29458 ft 513 kts 70°
2026-05-04 13:29 20.68346 111.02367 30084 ft 518 kts 70°
2026-05-04 13:29 20.69568 111.06007 30723 ft 522 kts 69°
2026-05-04 13:29 20.70801 111.09673 31014 ft 529 kts 69°
2026-05-04 13:29 20.72048 111.13381 31028 ft 529 kts 69°
2026-05-04 13:30 20.74514 111.20717 31032 ft 526 kts 69°
2026-05-04 13:30 20.76998 111.28110 31034 ft 527 kts 69°
2026-05-04 13:31 20.79464 111.35458 31033 ft 527 kts 69°
2026-05-04 13:31 20.81934 111.42830 31036 ft 527 kts 69°
2026-05-04 13:32 20.84401 111.50200 31035 ft 528 kts 69°
2026-05-04 13:32 20.86896 111.57587 31037 ft 527 kts 69°
2026-05-04 13:33 20.89379 111.64933 31039 ft 527 kts 69°
2026-05-04 13:33 20.91856 111.72277 31029 ft 528 kts 69°
2026-05-04 13:34 20.94353 111.79689 31032 ft 528 kts 69°
2026-05-04 13:34 20.96830 111.87059 31033 ft 528 kts 69°
2026-05-04 13:35 21.00549 111.98146 31035 ft 528 kts 69°
2026-05-04 13:36 21.03017 112.05514 31037 ft 529 kts 69°
2026-05-04 13:36 21.05494 112.12927 31041 ft 528 kts 69°
2026-05-04 13:37 21.07956 112.20305 31050 ft 529 kts 69°
2026-05-04 13:37 21.10439 112.27758 31051 ft 527 kts 69°
2026-05-04 13:38 21.12728 112.34641 30241 ft 522 kts 69°
2026-05-04 13:38 21.13602 112.37270 29381 ft 529 kts 70°
2026-05-04 13:38 21.14793 112.40856 28775 ft 525 kts 70°
2026-05-04 13:38 21.16004 112.44508 28635 ft 511 kts 70°
2026-05-04 13:39 21.17173 112.48034 28582 ft 495 kts 70°
2026-05-04 13:39 21.18323 112.51508 28222 ft 488 kts 70°
2026-05-04 13:39 21.19441 112.54885 27733 ft 485 kts 70°
2026-05-04 13:39 21.20565 112.58283 27160 ft 483 kts 70°
2026-05-04 13:40 21.21685 112.61671 26621 ft 481 kts 70°
2026-05-04 13:40 21.22793 112.65026 26117 ft 477 kts 70°
2026-05-04 13:40 21.23904 112.68394 25608 ft 474 kts 70°
2026-05-04 13:40 21.24995 112.71703 25103 ft 470 kts 70°
2026-05-04 13:41 21.26078 112.74988 24799 ft 461 kts 70°
2026-05-04 13:41 21.27138 112.78210 24486 ft 454 kts 70°
2026-05-04 13:41 21.28185 112.81390 24054 ft 449 kts 69°
2026-05-04 13:42 21.30242 112.87650 23105 ft 443 kts 70°
2026-05-04 13:42 21.31273 112.90788 22639 ft 440 kts 69°
2026-05-04 13:42 21.32289 112.93883 22233 ft 436 kts 69°
2026-05-04 13:42 21.33285 112.96924 21817 ft 432 kts 69°
2026-05-04 13:43 21.34283 112.99965 21392 ft 429 kts 69°
2026-05-04 13:43 21.35260 113.02948 20984 ft 425 kts 69°
2026-05-04 13:43 21.36233 113.05922 20550 ft 422 kts 69°
2026-05-04 13:43 21.37205 113.08893 20112 ft 419 kts 69°
2026-05-04 13:44 21.38160 113.11814 19690 ft 415 kts 69°
2026-05-04 13:44 21.39115 113.14739 19286 ft 412 kts 69°
2026-05-04 13:44 21.40069 113.17660 18839 ft 409 kts 69°
2026-05-04 13:44 21.40994 113.20494 18407 ft 406 kts 69°
2026-05-04 13:45 21.41921 113.23340 17991 ft 403 kts 69°
2026-05-04 13:45 21.42847 113.26180 17601 ft 399 kts 69°
2026-05-04 13:45 21.43758 113.28978 17197 ft 395 kts 69°
2026-05-04 13:45 21.44661 113.31751 16747 ft 394 kts 69°
2026-05-04 13:46 21.45563 113.34525 16312 ft 391 kts 69°
2026-05-04 13:46 21.46448 113.37249 15888 ft 389 kts 69°
2026-05-04 13:46 21.47337 113.39985 15455 ft 387 kts 70°
2026-05-04 13:46 21.48213 113.42683 15056 ft 383 kts 70°
2026-05-04 13:47 21.49093 113.45396 14660 ft 380 kts 69°
2026-05-04 13:47 21.49953 113.48050 14225 ft 378 kts 70°
2026-05-04 13:47 21.50813 113.50704 13797 ft 376 kts 70°
2026-05-04 13:47 21.51676 113.53366 13387 ft 373 kts 70°
2026-05-04 13:48 21.52540 113.55978 13081 ft 368 kts 66°
2026-05-04 13:48 21.53780 113.58362 13043 ft 369 kts 51°
2026-05-04 13:48 21.55477 113.60433 13050 ft 369 kts 43°
2026-05-04 13:48 21.57275 113.62380 13047 ft 368 kts 43°
2026-05-04 13:49 21.59103 113.64334 13044 ft 366 kts 42°
2026-05-04 13:49 21.60889 113.66239 12737 ft 361 kts 43°
2026-05-04 13:49 21.62685 113.68152 12134 ft 365 kts 43°
2026-05-04 13:49 21.64469 113.70051 11695 ft 363 kts 43°
2026-05-04 13:50 21.66279 113.71934 11336 ft 358 kts 40°
2026-05-04 13:50 21.68128 113.73728 11075 ft 353 kts 40°
2026-05-04 13:50 21.69978 113.75513 11048 ft 355 kts 40°
2026-05-04 13:50 21.71782 113.77264 10829 ft 347 kts 40°
2026-05-04 13:51 21.73558 113.78994 10548 ft 341 kts 40°
2026-05-04 13:51 21.75298 113.80692 10442 ft 329 kts 40°
2026-05-04 13:51 21.76966 113.82322 10334 ft 318 kts 40°
2026-05-04 13:51 21.78575 113.83894 10206 ft 308 kts 40°
2026-05-04 13:52 21.81679 113.86929 9764 ft 299 kts 40°
2026-05-04 13:52 21.83269 113.88386 9337 ft 299 kts 30°
2026-05-04 13:52 21.85185 113.89163 8941 ft 293 kts
2026-05-04 13:53 21.87189 113.89011 8579 ft 285 kts 341°
2026-05-04 13:53 21.89057 113.88290 8233 ft 283 kts 334°
2026-05-04 13:53 21.90861 113.87444 7887 ft 282 kts 333°
2026-05-04 13:54 21.94429 113.85680 7208 ft 281 kts 333°
2026-05-04 13:54 21.96205 113.84796 6867 ft 281 kts 333°
2026-05-04 13:54 21.99759 113.83027 6192 ft 279 kts 334°
2026-05-04 13:55 22.01528 113.82147 5855 ft 279 kts 334°
2026-05-04 13:55 22.05052 113.80392 5189 ft 278 kts 335°
2026-05-04 13:55 22.06799 113.79521 4821 ft 277 kts 336°
2026-05-04 13:56 22.08526 113.78661 4503 ft 267 kts 336°
2026-05-04 13:56 22.10188 113.77849 4213 ft 258 kts 341°
2026-05-04 13:56 22.13686 113.77220 3302 ft 255 kts 357°
2026-05-04 13:57 22.15429 113.77030 3285 ft 242 kts 357°
2026-05-04 13:57 22.17089 113.76845 3147 ft 236 kts 357°
2026-05-04 13:58 22.21970 113.76292 2351 ft 232 kts 358°
2026-05-04 13:58 22.25257 113.75919 1529 ft 232 kts 358°
2026-05-04 13:58 22.26761 113.76070 1488 ft 203 kts 24°
2026-05-04 13:59 22.27933 113.76721 1484 ft 174 kts 37°
2026-05-04 13:59 22.28736 113.77603 1486 ft 159 kts 66°
2026-05-04 13:59 22.29370 113.79672 1496 ft 135 kts 72°
2026-05-04 14:00 22.29691 113.80644 1495 ft 140 kts 72°
2026-05-04 14:00 22.30337 113.82634 1121 ft 141 kts 72°
2026-05-04 14:00 22.30663 113.83640 932 ft 141 kts 72°
2026-05-04 14:01 22.31006 113.84649 745 ft 142 kts 70°
2026-05-04 14:01 22.31370 113.85639 521 ft 141 kts 73°
2026-05-04 14:01 22.31978 113.87662 196 ft 141 kts 72°
2026-05-04 14:02 22.32300 113.88660 44 ft 139 kts 73°
2026-05-04 14:02 22.32565 113.89482 41 ft 89 kts 71°
2026-05-04 14:02 22.32705 113.89917 41 ft 21 kts 69°
2026-05-04 14:02 22.32707 113.90042 41 ft 16 kts 99°
2026-05-04 14:03 22.32691 113.90129 41 ft 0 kts 103°
2026-05-04 14:04 22.32691 113.90130 41 ft 0 kts 103°
2026-05-04 14:05 22.32687 113.90146 41 ft 2 kts 103°
2026-05-04 14:05 22.32683 113.90167 41 ft 3 kts 103°
2026-05-04 14:05 22.32678 113.90190 41 ft 3 kts 105°
2026-05-04 14:06 22.32670 113.90213 41 ft 3 kts 117°
2026-05-04 14:06 22.32657 113.90234 41 ft 3 kts 123°
2026-05-04 14:06 22.32640 113.90257 41 ft 5 kts 135°
2026-05-04 14:06 22.32596 113.90287 41 ft 10 kts 159°
2026-05-04 14:07 22.32516 113.90317 41 ft 14 kts 161°
2026-05-04 14:07 22.32408 113.90356 41 ft 17 kts 162°
2026-05-04 14:07 22.32279 113.90403 41 ft 21 kts 161°
2026-05-04 14:07 22.32130 113.90459 41 ft 24 kts 163°
2026-05-04 14:08 22.31961 113.90523 41 ft 27 kts 159°
2026-05-04 14:08 22.31774 113.90597 41 ft 29 kts 163°
2026-05-04 14:08 22.31665 113.90640 41 ft 11 kts 127°
2026-05-04 14:08 22.31668 113.90733 41 ft 12 kts 68°
2026-05-04 14:09 22.31731 113.90915 41 ft 12 kts 71°
2026-05-04 14:09 22.31759 113.91004 41 ft 13 kts 71°
2026-05-04 14:10 22.31766 113.91175 41 ft 11 kts 130°
2026-05-04 14:10 22.31749 113.91251 41 ft 10 kts 87°
2026-05-04 14:10 22.31713 113.91310 41 ft 10 kts 154°
2026-05-04 14:10 22.31674 113.91326 41 ft 0 kts 161°
2026-05-04 14:11 22.31649 113.91335 41 ft 8 kts 161°
2026-05-04 14:11 22.31534 113.91375 41 ft 8 kts 162°
2026-05-04 14:11 22.31477 113.91395 41 ft 8 kts 161°
2026-05-04 14:12 22.31422 113.91415 41 ft 9 kts 161°
2026-05-04 14:12 22.31363 113.91468 41 ft 12 kts 97°
2026-05-04 14:12 22.31416 113.91666 41 ft 13 kts 71°
2026-05-04 14:13 22.31446 113.91759 41 ft 12 kts 70°
2026-05-04 14:13 22.31475 113.91846 41 ft 11 kts 71°
2026-05-04 14:13 22.31489 113.91889 41 ft 0 kts 71°
2026-05-04 14:14 22.31502 113.91932 41 ft 12 kts 71°
2026-05-04 14:15 22.31556 113.92104 41 ft 11 kts 71°
2026-05-04 14:15 22.31616 113.92288 41 ft 16 kts 71°
2026-05-04 14:16 22.31612 113.92493 41 ft 12 kts 118°
2026-05-04 14:16 22.31567 113.92589 41 ft 16 kts 115°
2026-05-04 14:17 22.31502 113.92732 41 ft 6 kts 121°
2026-05-04 14:17 22.31467 113.92762 41 ft 6 kts 152°
2026-05-04 14:17 22.31392 113.92794 41 ft 3 kts 160°
2026-05-04 14:18 22.31388 113.92796 41 ft 0 kts 160°